Delta, CO

3:51 PM MDT on April 24, 2017 (GMT -0600)
Delta

Weather History for KAJZ - July, 2014

Change the Weather History Date:

Thursday, July 17, 2014

  Actual Average (KMTJ) Record (KMTJ)
Temperature  
Mean Temperature 76 °F -  
Max Temperature 93 °F 89 °F 100 °F (2010)
Min Temperature 60 °F 56 °F 54 °F (1999)
Cooling Degree Days 12    
Growing Degree Days 26 (Base 50)    
Moisture  
Dew Point 42 °F    
Average Humidity 31    
Maximum Humidity 60    
Minimum Humidity 12    
Precipitation  
Precipitation 0.00 in - - ()
Sea Level Pressure  
Sea Level Pressure 30.03 in    
Wind  
Wind Speed 8 mph (North)    
Max Wind Speed 18 mph    
Max Gust Speed 28 mph    
Visibility 10 miles    
Events      
Averages and records for this station are not official NWS values.
T = Trace of Precipitation, MM = Missing Value Source: NWS Daily Summary

Daily Weather History Graph

Daily Weather History Graph

Search for Another Location

Airport or City:

Trip Planner

Search our weather history database for the weather conditions in past years. The results will help you decide how hot, cold, wet, or windy it might be!

Date:

Astronomy

Jul. 17, 2014 Rise Set
Actual Time 6:01 AM MDT 8:35 PM MDT
Civil Twilight 5:30 AM MDT 9:06 PM MDT
Nautical Twilight 4:51 AM MDT 9:44 PM MDT
Astronomical Twilight 4:08 AM MDT 10:27 PM MDT
Moon No Moon Rise 12:11 PM MDT (7/17)
Length of Visible Light 15h 36m
Length of Day
14h 34m
Waning Gibbous, 65% of the Moon is Illuminated
Jul 17
Waning Gibbous
Jul 18
Last Quarter
Jul 26
New
Aug 3
First Quarter
Aug 10
Full

Hourly Weather History & Observations

Time (MDT) Temp. Dew Point Humidity Pressure Visibility Wind Dir Wind Speed Gust Speed Precip Events Conditions
12:15 AM 75.0 °F 44.4 °F 34% 30.00 in 10.0 mi East 13.8 mph 18.4 mph N/A   Clear
12:35 AM 72.9 °F 46.4 °F 39% 30.00 in 10.0 mi NNE 4.6 mph - N/A   Clear
12:55 AM 72.9 °F 45.9 °F 38% 30.01 in 10.0 mi NE 3.5 mph - N/A   Clear
1:15 AM 71.2 °F 47.1 °F 42% 30.01 in 10.0 mi North 6.9 mph - N/A   Clear
1:35 AM 72.1 °F 43.7 °F 36% 30.01 in 10.0 mi NW 6.9 mph - N/A   Clear
1:55 AM 71.6 °F 44.2 °F 37% 30.01 in 10.0 mi WSW 3.5 mph - N/A   Clear
2:15 AM 71.1 °F 44.4 °F 38% 30.02 in 10.0 mi Calm Calm - N/A   Clear
2:35 AM 69.6 °F 45.1 °F 41% 30.02 in 10.0 mi Calm Calm - N/A   Clear
2:55 AM 67.1 °F 45.5 °F 46% 30.02 in 10.0 mi Calm Calm - N/A   Clear
3:15 AM 65.1 °F 47.3 °F 52% 30.02 in 10.0 mi Calm Calm - N/A   Clear
3:35 AM 65.3 °F 47.1 °F 52% 30.02 in 10.0 mi NNE 10.4 mph - N/A   Clear
3:55 AM 67.1 °F 48.2 °F 51% 30.03 in 10.0 mi NE 4.6 mph - N/A   Clear
4:15 AM 67.1 °F 47.3 °F 49% 30.03 in 10.0 mi NE 8.1 mph - N/A   Clear
4:35 AM 66.0 °F 46.0 °F 48% 30.04 in 10.0 mi NE 6.9 mph - N/A   Clear
4:55 AM 64.0 °F 44.6 °F 49% 30.04 in 10.0 mi ENE 8.1 mph - N/A   Clear
5:15 AM 63.5 °F 46.0 °F 53% 30.05 in 10.0 mi ENE 6.9 mph - N/A   Clear
5:35 AM 62.2 °F 45.5 °F 54% 30.05 in 10.0 mi NE 5.8 mph - N/A   Clear
5:55 AM 60.8 °F 45.9 °F 58% 30.06 in 10.0 mi NNE 8.1 mph - N/A   Clear
6:15 AM 60.8 °F 46.8 °F 60% 30.06 in 10.0 mi NE 5.8 mph - N/A   Clear
6:35 AM 63.3 °F 45.7 °F 53% 30.08 in 10.0 mi ENE 5.8 mph - N/A   Clear
6:55 AM 64.6 °F 47.7 °F 54% 30.08 in 10.0 mi NE 6.9 mph - N/A   Clear
7:15 AM 65.5 °F 47.8 °F 53% 30.09 in 10.0 mi ENE 4.6 mph - N/A   Clear
7:35 AM 66.2 °F 48.6 °F 53% 30.09 in 10.0 mi ENE 4.6 mph - N/A   Clear
7:55 AM 68.0 °F 48.2 °F 49% 30.10 in 10.0 mi ENE 4.6 mph - N/A   Clear
8:15 AM 69.4 °F 46.6 °F 44% 30.10 in 10.0 mi East 6.9 mph - N/A   Clear
8:35 AM 69.4 °F 48.6 °F 47% 30.10 in 10.0 mi ESE 3.5 mph - N/A   Clear
8:55 AM 71.1 °F 47.5 °F 43% 30.10 in 10.0 mi East 4.6 mph - N/A   Clear
9:15 AM 72.5 °F 46.8 °F 40% 30.10 in 10.0 mi Calm Calm - N/A   Clear
9:35 AM 73.9 °F 45.7 °F 36% 30.10 in 10.0 mi South 3.5 mph - N/A   Clear
9:55 AM 74.5 °F 46.8 °F 37% 30.09 in 10.0 mi South 4.6 mph - N/A   Clear
10:15 AM 76.1 °F 46.2 °F 35% 30.09 in 10.0 mi Calm Calm - N/A   Clear
10:35 AM 79.2 °F 45.7 °F 31% 30.09 in 10.0 mi North 3.5 mph - N/A   Clear
10:55 AM 79.3 °F 45.9 °F 31% 30.08 in 10.0 mi SE 4.6 mph - N/A   Clear
11:15 AM 81.0 °F 45.9 °F 29% 30.08 in 10.0 mi East 4.6 mph - N/A   Clear
11:35 AM 84.0 °F 45.9 °F 26% 30.07 in 10.0 mi SSE 4.6 mph - N/A   Clear
11:55 AM 83.8 °F 44.6 °F 25% 30.06 in 10.0 mi SSE 5.8 mph - N/A   Clear
12:15 PM 87.8 °F 37.2 °F 17% 30.05 in 10.0 mi West 9.2 mph - N/A   Clear
12:35 PM 86.7 °F 36.1 °F 17% 30.04 in 10.0 mi West 9.2 mph 17.3 mph N/A   Clear
12:55 PM 89.6 °F 34.7 °F 14% 30.04 in 10.0 mi West 11.5 mph 24.2 mph N/A   Clear
1:15 PM 90.1 °F 34.0 °F 14% 30.03 in 10.0 mi West 15.0 mph 20.7 mph N/A   Clear
1:35 PM 90.7 °F 32.9 °F 13% 30.02 in 10.0 mi WSW 15.0 mph 24.2 mph N/A   Clear
1:55 PM 92.3 °F 32.4 °F 12% 30.02 in 10.0 mi West 18.4 mph 26.5 mph N/A   Scattered Clouds
2:15 PM 91.4 °F 31.6 °F 12% 30.01 in 10.0 mi West 18.4 mph 27.6 mph N/A   Clear
2:35 PM 91.4 °F 31.8 °F 12% 30.01 in 10.0 mi WSW 17.3 mph 26.5 mph N/A   Scattered Clouds
2:55 PM 92.1 °F 34.2 °F 13% 30.01 in 10.0 mi West 12.7 mph 21.9 mph N/A   Scattered Clouds
3:15 PM 92.1 °F 34.7 °F 13% 30.00 in 10.0 mi West 17.3 mph 23.0 mph N/A   Scattered Clouds
3:35 PM 92.1 °F 35.8 °F 14% 30.00 in 10.0 mi West 16.1 mph 26.5 mph N/A   Scattered Clouds
3:55 PM 93.2 °F 36.7 °F 14% 29.99 in 10.0 mi West 16.1 mph 26.5 mph N/A   Scattered Clouds
4:15 PM 92.8 °F 36.7 °F 14% 29.98 in 10.0 mi West 16.1 mph 24.2 mph N/A   Scattered Clouds
4:35 PM 92.5 °F 36.1 °F 14% 29.98 in 10.0 mi West 13.8 mph 24.2 mph N/A   Mostly Cloudy
4:55 PM 93.2 °F 36.5 °F 14% 29.98 in 10.0 mi WNW 17.3 mph 26.5 mph N/A   Mostly Cloudy
5:15 PM 93.2 °F 36.1 °F 13% 29.98 in 10.0 mi West 12.7 mph 20.7 mph N/A   Scattered Clouds
5:35 PM 92.8 °F 36.3 °F 14% 29.98 in 10.0 mi West 12.7 mph 18.4 mph N/A   Scattered Clouds
5:55 PM 92.5 °F 34.9 °F 13% 29.98 in 10.0 mi WNW 12.7 mph - N/A   Clear
6:15 PM 91.9 °F 36.0 °F 14% 29.98 in 10.0 mi WNW 5.8 mph - N/A   Scattered Clouds
6:35 PM 91.8 °F 35.2 °F 14% 29.98 in 10.0 mi NNW 10.4 mph - N/A   Clear
6:55 PM 91.6 °F 35.8 °F 14% 29.98 in 10.0 mi North 11.5 mph - N/A   Clear
7:15 PM 90.1 °F 36.3 °F 15% 29.98 in 10.0 mi NNW 8.1 mph - N/A   Clear
7:35 PM 89.2 °F 36.3 °F 15% 29.98 in 10.0 mi NNW 10.4 mph - N/A   Clear
7:55 PM 88.0 °F 37.0 °F 16% 29.98 in 10.0 mi North 9.2 mph - N/A   Clear
8:15 PM 86.2 °F 38.5 °F 18% 29.98 in 10.0 mi North 9.2 mph - N/A   Clear
8:35 PM 83.7 °F 39.2 °F 21% 29.98 in 10.0 mi North 8.1 mph - N/A   Clear
8:55 PM 83.3 °F 38.8 °F 21% 29.99 in 7.0 mi North 9.2 mph - N/A   Clear
9:15 PM 81.5 °F 39.4 °F 22% 30.00 in 10.0 mi North 9.2 mph - N/A   Clear
9:35 PM 77.7 °F 41.5 °F 27% 30.00 in 10.0 mi NNE 6.9 mph - N/A   Clear
9:55 PM 74.8 °F 41.7 °F 30% 30.01 in 10.0 mi NE 8.1 mph - N/A   Clear
10:15 PM 75.2 °F 37.9 °F 26% 30.01 in 10.0 mi ENE 6.9 mph - N/A   Clear
10:35 PM 74.5 °F 37.9 °F 27% 30.02 in 10.0 mi East 8.1 mph - N/A   Clear
10:55 PM 74.7 °F 39.6 °F 28% 30.03 in 10.0 mi NE 8.1 mph - N/A   Clear
11:15 PM 72.3 °F 41.5 °F 33% 30.04 in 10.0 mi NNE 9.2 mph - N/A   Clear
11:35 PM 71.6 °F 41.7 °F 34% 30.04 in 10.0 mi NNE 5.8 mph - N/A   Clear
11:55 PM 69.8 °F 41.7 °F 36% 30.05 in 10.0 mi NE 6.9 mph - N/A   Clear